sat.trackr.live / text

‹ back to catalog

STARLINK-32241

NORAD 60437 · 2024-144N

PAYLOAD ACTIVE UNKNOWN

§ Identity

Operator
Country
US
Launch date
2024-08-12
Launch site
AFETR
Launch vehicle
Mass (kg)
RCS (m²)

Purposes: comms

External: N2YO · Heavens-Above · Gunter

§ Orbital elements

Epoch: 2026-09-21T19:02:25.932480Z

Period
93.85 min
Inclination
53.1612°
Eccentricity
0.0001088
Mean motion
15.34396429 rev/d
Perigee alt
462.0 km
Apogee alt
463.5 km
Semi-major
6,840.9 km
B*
-6.4257e-7
RAAN
21.9850°
Arg perigee
76.5762°
Mean anomaly
283.5361°
Rev number
11,939

§ Raw data

STARLINK-322411 60437U 24144N   26264.79335570 -.00000398  00000+0 -64257-6 0  99952 60437  53.1612  21.9850 0001088  76.5762 283.5361 15.34396429119392

JSON: /api/v1/satellites/60437 · /tle

For live sub-satellite position, see the globe view (requires WebGL).

§ Visibility from observer

Set your observer location to see the next 7 days of passes ≥ 10°. The values pass through the URL so the page stays shareable.

No JS? Fill the form by hand. The geolocation button needs JavaScript.